"Pseudo-MPEC" for LA096Em

Created 2025 Jul 7 21:35:07 UT using Find_Orb

Click here for an explanation of pseudo-MPECs

 
 Astrometry: 
     LA096Em* C2025 06 16.71347221 23 00.456+03 11 46.07   ~6IF5 19.5 GVNEOCPP07
     LA096Em  C2025 06 16.81254521 23 04.733+03 12 01.12   ~6IF5 20.4 GVNEOCPP07
     LA096Em  C2025 06 16.85471821 23 06.562+03 12 06.91   ~6IF5 19.7 GVNEOCPP07
     LA096Em  C2025 06 16.89550221 23 08.261+03 12 14.47   ~6IF5 19.5 GVNEOCPP07

Station data:
(P07) Space Surveillance Telescope, HEH Station  (S21.895685 E114.089870)
   Australia/WA.  Observers M. Blythe, R. Brungard, P. Festler, T. McVey, J.
   Paige, G. Spitz, L. Banks. Measurers M. Cornell, M. Kotson, R. Rios, J.
   Ruprecht, J. Vaillancourt, J. Varey, H. Viggh, D. Woods. 3.5-m f/1.0
   reflector + CCD.

Orbital elements:  LA096Em
   Perihelion 2025 Aug 20.14903 +/- 72.9 TT =  3:34:36 (JD 2460907.64903)
Epoch 2025 Jun 17.0 TT = JDT 2460843.5   Earth MOID: 0.0172   Ve: 0.0952
M 357.72532609 +/- 53               Me: 0.0698                   AutoNEOCP
n   0.03545920 +/-                  Peri.  311.27770 +/- 80
a   9.17592846 +/-                  Node   114.07910 +/- 27
e   0.9793565 +/- 0.26              Incl.   65.50623 +/- 27
P  27.79553                H 18.18  G  0.15   U 11.6  SR
q 0.18942303 +/- 0.679    Q 18.1624338 +/- 44.5           (J2000 ecliptic)
From 4 observations 2025 June 16 (4.4 hr); mean residual 0".40
Residuals in arcseconds: 
250616 P07  .07-  .22+    250616 P07  .40+  .75-    
250616 P07  .05-  .10-    250616 P07  .28-  .64+    

Ephemerides (geocentric):
Date (UTC) HH   RA             Dec           delta  r     elong  mag " sig PA
---- --------  ------------   ------------  ------ ------ -----  --- --------
2025 07 07 22  21 53 15.395   +01 45 57.66  .21429 1.1732 133.0 16.7  61d  88
2025 07 07 23  21 53 25.724   +01 44 53.32  .21319 1.1724 133.0 16.7  61d  88
2025 07 08 00  21 53 36.154   +01 43 48.24  .21208 1.1716 133.0 16.7  61d  88
2025 07 08 01  21 53 46.685   +01 42 42.41  .21098 1.1708 133.0 16.7  61d  88
2025 07 08 02  21 53 57.321   +01 41 35.82  .20988 1.1699 133.0 16.7  61d  88
2025 07 08 03  21 54 08.061   +01 40 28.46  .20878 1.1691 133.0 16.7  62d  88
2025 07 08 04  21 54 18.908   +01 39 20.32  .20768 1.1683 133.1 16.7  62d  88
2025 07 08 05  21 54 29.864   +01 38 11.38  .20658 1.1675 133.1 16.7  62d  88
2025 07 08 06  21 54 40.930   +01 37 01.63  .20548 1.1666 133.1 16.6  62d  88
2025 07 08 07  21 54 52.108   +01 35 51.06  .20438 1.1658 133.1 16.6  62d  88
2025 07 08 08  21 55 03.401   +01 34 39.65  .20328 1.1650 133.1 16.6  62d  88
2025 07 08 09  21 55 14.809   +01 33 27.40  .20219 1.1641 133.1 16.6  62d  88
2025 07 08 10  21 55 26.334   +01 32 14.28  .20109 1.1633 133.1 16.6  62d  88
2025 07 08 11  21 55 37.980   +01 31 00.30  .19999 1.1625 133.1 16.6  62d  88
2025 07 08 12  21 55 49.746   +01 29 45.42  .19889 1.1617 133.1 16.6  62d  88
2025 07 08 13  21 56 01.637   +01 28 29.64  .19779 1.1608 133.1 16.6  62d  88
2025 07 08 14  21 56 13.653   +01 27 12.95  .19669 1.1600 133.1 16.5  62d  88
2025 07 08 15  21 56 25.798   +01 25 55.32  .19560 1.1592 133.1 16.5  62d  88
2025 07 08 16  21 56 38.072   +01 24 36.74  .19450 1.1583 133.2 16.5  62d  88
2025 07 08 17  21 56 50.478   +01 23 17.21  .19340 1.1575 133.2 16.5  62d  88
2025 07 08 18  21 57 03.019   +01 21 56.69  .19230 1.1567 133.2 16.5  62d  88
2025 07 08 19  21 57 15.697   +01 20 35.18  .19121 1.1559 133.2 16.5  62d  88
2025 07 08 20  21 57 28.514   +01 19 12.65  .19011 1.1550 133.2 16.5  62d  88
2025 07 08 21  21 57 41.472   +01 17 49.10  .18901 1.1542 133.2 16.5  62d  88
2025 07 08 22  21 57 54.575   +01 16 24.50  .18792 1.1534 133.2 16.4  62d  88
2025 07 08 23  21 58 07.824   +01 14 58.84  .18682 1.1525 133.2 16.4  62d  88
2025 07 09 00  21 58 21.222   +01 13 32.10  .18573 1.1517 133.2 16.4  62d  88
2025 07 09 01  21 58 34.772   +01 12 04.25  .18463 1.1509 133.2 16.4  62d  88
2025 07 09 02  21 58 48.477   +01 10 35.29  .18354 1.1500 133.2 16.4  62d  88
2025 07 09 03  21 59 02.339   +01 09 05.18  .18244 1.1492 133.2 16.4  62d  88
2025 07 09 04  21 59 16.361   +01 07 33.92  .18135 1.1484 133.2 16.4  62d  88
2025 07 09 05  21 59 30.546   +01 06 01.47  .18025 1.1475 133.2 16.3  62d  88
2025 07 09 06  21 59 44.897   +01 04 27.83  .17916 1.1467 133.2 16.3  62d  88
2025 07 09 07  21 59 59.418   +01 02 52.96  .17806 1.1459 133.2 16.3  63d  88
2025 07 09 08  22 00 14.110   +01 01 16.85  .17697 1.1450 133.2 16.3  63d  88
2025 07 09 09  22 00 28.979   +00 59 39.48  .17588 1.1442 133.2 16.3  63d  88
2025 07 09 10  22 00 44.025   +00 58 00.81  .17478 1.1434 133.2 16.3  63d  88
2025 07 09 11  22 00 59.254   +00 56 20.83  .17369 1.1425 133.2 16.3  63d  88
2025 07 09 12  22 01 14.668   +00 54 39.52  .17260 1.1417 133.2 16.2  63d  88
2025 07 09 13  22 01 30.272   +00 52 56.84  .17151 1.1409 133.2 16.2  63d  88
2025 07 09 14  22 01 46.068   +00 51 12.78  .17042 1.1400 133.2 16.2  63d  88
2025 07 09 15  22 02 02.060   +00 49 27.30  .16932 1.1392 133.2 16.2  63d  88
2025 07 09 16  22 02 18.253   +00 47 40.38  .16823 1.1384 133.2 16.2  63d  88
2025 07 09 17  22 02 34.649   +00 45 52.00  .16714 1.1375 133.2 16.2  63d  88
2025 07 09 18  22 02 51.254   +00 44 02.12  .16605 1.1367 133.2 16.2  63d  88
2025 07 09 19  22 03 08.070   +00 42 10.72  .16496 1.1359 133.2 16.1  63d  88
2025 07 09 20  22 03 25.104   +00 40 17.77  .16387 1.1350 133.2 16.1  63d  88
2025 07 09 21  22 03 42.357   +00 38 23.23  .16278 1.1342 133.2 16.1  63d  88